Tracking 35331 objects as of 17-Sep-2026
HD Live streaming from Space Station
objects crossing your sky now

CHINASAT-18

Track CHINASAT-18 now!
10-day predictions


NORAD ID: 44493
Int'l Code: 2019-053A
Launch date: August 19, 2019
Source: People's Republic of China (PRC)
Launch site: Xichang Space Center, China (XSC)
Your satellite tracking list
Your tracking list is empty




NASA's NSSDC Master Catalog

Two Line Element Set (TLE):
1 44493U 19053A   26259.17705175  .00033760  81316-6  34748-3 0  9992
2 44493  28.4596 316.4167 6221267  81.4621 340.0933  3.81244818 73322
Source of the keplerian elements: AFSPC